Location: Krasnoyarskiy Pitomnik
(51.1333°N, 71.6167°E)
Time: 15:50:35
(UTC+00:00)

Altair - Visible Passes

Search period start: 13 April 2024 00:00
Search period end: 23 April 2024 00:00
Orbit: 1502 x 1682 km, 47.2° (Epoch: 12 April)

Date Brightness Start Highest point End Pass type
(mag) Time Alt. Az. Time Alt. Az. Time Alt. Az.
13 Apr 8.4 14:29:17 10° S 14:36:36 24° SE 14:43:45 10° E visible
13 Apr 7.6 16:30:21 10° SW 16:39:49 53° SSE 16:48:58 10° E visible
13 Apr 7.3 18:34:17 10° W 18:43:59 71° S 18:53:20 10° E visible
13 Apr 7.4 20:38:54 10° W 20:48:11 57° SSW 20:57:09 10° SE visible
13 Apr 8.2 22:44:04 10° W 22:51:24 26° SW 22:58:35 10° S visible
14 Apr 7.7 16:05:14 10° SW 16:14:40 51° SSE 16:23:47 10° E visible
14 Apr 7.3 18:09:04 10° WSW 18:18:48 71° S 18:28:10 10° E visible
14 Apr 7.4 20:13:40 10° W 20:23:02 59° SSW 20:32:04 10° SE visible
14 Apr 8.1 22:18:44 10° W 22:26:21 29° SW 22:33:48 10° SSE visible
15 Apr 7.7 15:40:08 10° SW 15:49:31 49° SSE 15:58:35 10° E visible
15 Apr 7.4 17:43:50 10° WSW 17:53:36 71° S 18:03:00 10° E visible
15 Apr 7.4 19:48:26 10° W 19:57:53 61° SSW 20:06:59 10° ESE visible
15 Apr 8.0 21:53:26 10° W 22:01:17 31° SW 22:08:58 10° SSE visible
16 Apr 7.8 15:15:02 10° SW 15:24:22 47° SSE 15:33:23 10° E visible
16 Apr 7.4 17:18:38 10° WSW 17:28:25 70° S 17:37:50 10° E visible
16 Apr 7.4 19:23:12 10° W 19:32:43 63° SSW 19:41:53 10° ESE visible
16 Apr 7.9 21:28:08 10° W 21:36:13 33° SW 21:44:06 10° SSE visible
17 Apr 7.9 14:49:58 10° SW 14:59:13 44° SSE 15:08:11 10° E visible
17 Apr 7.4 16:53:24 10° WSW 17:03:13 69° S 17:12:40 10° E visible
17 Apr 7.4 18:57:58 10° W 19:07:33 64° SSW 19:12:26 32° SE visible
17 Apr 7.9 21:02:49 10° W 21:17:13 17° SSE 21:19:13 10° SSE visible
18 Apr 7.5 16:28:12 10° WSW 16:38:02 68° S 16:47:30 10° E visible
18 Apr 7.4 18:32:43 10° W 18:42:23 66° SSW 18:46:59 34° SE visible
18 Apr 7.9 20:37:33 10° W 20:56:51 - SSE 20:44:54 36° SW visible
18 Apr9.322:55:07SSW22:55:07SSW22:42:49Wvisible
19 Apr 7.5 16:02:59 10° WSW 16:12:50 67° SSE 16:22:19 10° E visible
19 Apr 7.4 18:07:29 10° W 18:17:12 67° SSW 18:22:10 32° ESE visible
19 Apr 7.8 20:12:16 10° W 20:20:07 39° SW 20:20:07 39° SW visible
20 Apr 7.6 15:37:47 10° WSW 15:47:38 66° SSE 15:57:09 10° E visible
20 Apr 7.4 17:42:15 10° W 17:52:01 69° S 17:57:35 28° ESE visible
20 Apr 7.7 19:47:01 10° W 19:55:33 42° SW 19:55:33 42° SW visible
21 Apr 7.6 15:12:35 10° WSW 15:22:27 64° SSE 15:31:58 10° E visible
21 Apr 7.5 17:17:00 10° W 17:26:50 70° S 17:33:09 24° ESE visible
21 Apr 7.7 19:21:46 10° W 19:30:45 44° SSW 19:31:07 44° SSW visible
21 Apr 9.1 21:28:11 10° W 21:29:05 12° W 21:29:05 12° W visible
22 Apr 7.7 14:47:25 10° WSW 14:57:15 63° SSE 15:06:47 10° E visible
22 Apr 7.5 16:51:46 10° W 17:01:38 70° S 17:08:47 20° ESE visible
22 Apr 7.6 18:56:30 10° W 19:05:38 47° SSW 19:06:45 45° SSW visible
22 Apr 8.9 21:02:35 10° W 21:04:44 14° WSW 21:04:44 14° WSW visible
